Preview of NWS' New Version of Forecast
This preview is not operational and should not be used for support decisions.
Latest weather observations around

Eugene, Mahlon Sweet Field (KEUG)

Using English Units (Switch to International System of Units)
Date/ Time (PDT) Wind (mph) Vis. (mi) Weather Sky Cond. Temp (°F) Rel. Humidity Wind Chill (°F) Heat Index (°F) Pressure Precip. (in)
Air Dwpt 6 hour Altimeter (inHg) Sea level (inHg) 1 hr 3 hr 6 hr
Max Min
Jun 19 03:54 N 5 10 Clear CLR 48 44     86% 46   30.25 30.24      
Jun 19 02:54 NNW 8 10 Clear CLR 49 45     86% 45   30.25 30.24      
Jun 19 01:54 N 9 10 Clear CLR 50 45     83%     30.24 30.24      
Jun 19 00:54 N 13 10 Clear CLR 54 47     77%     30.23 30.23      
Jun 18 23:54 N 7 10 Clear CLR 53 46     77%     30.23 30.23      
Jun 18 22:54 NNE 8 10 Clear CLR 56 48     75%     30.22 30.22      
Jun 18 21:54 NE 6 10 Clear CLR 60 50     69%     30.2 30.2      
Jun 18 20:54 NNW 10 10 Mostly Clear FEW200 66 51     59%     30.18 30.17      
Jun 18 19:54 N 14 10 Mostly Clear FEW200 74 53     48%   73 30.16 30.16      
Jun 18 18:54 NE 9 10 Mostly Clear FEW050 FEW200 77 54     45%   77 30.16 30.15      
Jun 18 17:54 NE 10 10 Mostly Clear FEW050 FEW200 79 54     42%   79 30.16 30.15      
Jun 18 16:54 NNE 10 10 Mostly Clear FEW050 FEW200 78 53     42%   78 30.17 30.16      
Jun 18 15:54 N 13 10 Mostly Clear FEW050 78 54     43%   78 30.18 30.17      
Jun 18 14:54 N 9 10 Mostly Clear FEW050 78 55     45%   78 30.19 30.19      
Jun 18 13:54 NNE 5 10 Partly Cloudy SCT041 76 54     47%   75 30.2 30.2      
Jun 18 12:54 NNE 14 10 Mostly Cloudy BKN041 74 54     50%   73 30.22 30.21      
Jun 18 11:54 NNE 13 10 Cloudy OVC037 73 55     53%   73 30.22 30.22      
Jun 18 10:54 NNE 13 10 Partly Cloudy SCT027 SCT044 72 56     57%   72 30.23 30.22      
Jun 18 09:54 N 11 10 Partly Cloudy SCT023 SCT120 69 55     61%     30.23 30.23      
Jun 18 08:54 N 14 10 Partly Cloudy FEW040 SCT120 65 55     70%     30.23 30.23      
Jun 18 07:54 N 10 10 Mostly Clear FEW050 FEW200 62 54     75%     30.23 30.22      
Jun 18 06:54 N 7 10 Mostly Clear FEW060 FEW150 59 53     81%     30.22 30.22      
Jun 18 05:54 NNW 5 10 Mostly Clear FEW200 55 51     86%     30.21 30.2      
Jun 18 04:54 NW 6 10 Clear CLR 54 50     86%     30.2 30.19      
Jun 18 03:54 NW 7 10 Clear CLR 54 51     90%     30.19 30.18      
Jun 18 02:54 WNW 5 10 Clear CLR 57 52     83%     30.18 30.17      
Jun 18 01:54 NW 6 10 Clear CLR 57 52     83%     30.17 30.17      
Jun 18 00:54 N 9 10 Clear CLR 59 52     78%     30.16 30.15      
Jun 17 23:54 W 3 10 Clear CLR 61 54     78%     30.16 30.15      
Jun 17 22:54 NE 7 10 Mostly Clear FEW250 64 54     70%     30.14 30.14      
Jun 17 21:54 ENE 6 10 Mostly Clear FEW250 64 54     70%     30.14 30.13      
Jun 17 20:54 NNW 8 10 Partly Cloudy SCT250 71 55     57%   71 30.11 30.1      
Jun 17 19:54 N 11 10 Partly Cloudy SCT250 79 57     47%   79 30.1 30.09      
Jun 17 18:54 N 11 10 Mostly Clear FEW080 FEW250 82 56     41%   82 30.08 30.08      
Jun 17 17:54 NNE 13 10 Mostly Clear FEW080 FEW250 83 56     40%   82 30.08 30.08      
Jun 17 16:54 NNE 13 10 Mostly Clear FEW080 FEW250 84 54     36%   83 30.09 30.08      
Jun 17 15:54 NNE 14 10 Partly Cloudy FEW080 SCT250 83 53     36%   82 30.09 30.09      
Jun 17 14:54 N 14 10 Partly Cloudy FEW080 SCT250 82 51     34%   81 30.11 30.11      
Jun 17 13:54 N 13 10 Partly Cloudy FEW080 SCT250 81 52     37%   80 30.12 30.11      
Jun 17 12:54 NNE 14 10 Partly Cloudy FEW080 SCT250 78 53     42%   78 30.13 30.12      
Jun 17 11:54 NNE 9 10 Partly Cloudy FEW060 SCT250 76 53     45%   75 30.14 30.13      
Jun 17 10:54 N 10 10 Partly Cloudy FEW080 SCT250 73 54     51%   72 30.14 30.13      
Jun 17 09:54 N 8 10 Mostly Clear FEW250 69 54     59%     30.13 30.13      
Jun 17 08:54 N 5 10 Partly Cloudy SCT250 64 53     67%     30.13 30.13      
Jun 17 07:54 N 6 10 Mostly Clear FEW250 60 53     78%     30.13 30.13      
Jun 17 06:54 Calm 10 Partly Cloudy FEW200 SCT250 55 51     86%     30.12 30.12      
Jun 17 05:54 WNW 7 10 Mostly Clear FEW200 51 49     92%     30.11 30.11      
Jun 17 04:54 Calm 10 Clear CLR 51 48     89%     30.1 30.09      
Jun 17 03:54 Calm 10 Clear CLR 54 50     86%     30.09 30.08      
Jun 17 02:54 NW 3 10 Clear CLR 54 50     86%     30.08 30.08      
Jun 17 01:54 Calm 10 Clear CLR 56 51     84%     30.07 30.06      
Jun 17 00:54 ENE 3 10 Clear CLR 57 52     83%     30.07 30.06      
Jun 16 23:54 WNW 3 10 Clear CLR 59 52     78%     30.06 30.05      
Jun 16 22:54 NNE 5 10 Clear   62 54     75%     30.04 30.04      
Jun 16 21:54 NE 5 10 Mostly Cloudy FEW200 BKN300 65 53     65%     30.02 30.02      
Jun 16 20:54 NW 9 10 Mostly Cloudy FEW200 BKN300 71 54     55%   70 29.99 29.99      
Jun 16 19:54 NNW 8 10 Partly Cloudy FEW080 FEW190 SCT300 77 57     50%   77 29.98 29.97      
Jun 16 18:54 N 13 10 Partly Cloudy FEW180 SCT300 81 55     41%   81 29.97 29.97      
Jun 16 17:54 N 10 10 Mostly Cloudy FEW180 SCT260 BKN300 83 53     36%   82 29.98 29.97      
Jun 16 16:54 NNE 14 10 Mostly Cloudy FEW070 SCT250 BKN300 82 53     37%   81 29.98 29.97      
Jun 16 15:54 NE 15 10 Mostly Cloudy FEW065 SCT240 BKN300 83 51     33%   81 29.99 29.98      
Jun 16 14:54 N 14 10 Mostly Cloudy FEW060 FEW160 SCT240 BKN300 83        %     30 29.99      
Jun 16 13:54 N 13 10 Partly Cloudy FEW150 SCT250 80 53     39%   80 30.02 30.01      
Jun 16 12:54 NNE 14 10 Mostly Clear FEW150 FEW200 79 54     42%   79 30.03 30.03      
Jun 16 11:54 NNE 9 10 Mostly Clear FEW180 FEW250 75 52     45%   74 30.04 30.03      
Jun 16 10:54 N 11 10 Mostly Clear FEW150 FEW250 73 54     51%   72 30.05 30.04      
Jun 16 09:54 NNW 10 10 Mostly Clear FEW250 69 54     59%     30.06 30.06      
Jun 16 08:54 N 3 10 Mostly Clear FEW250 65 54     68%     30.06 30.06      
Jun 16 07:54 NNE 5 10 Mostly Clear FEW250 62 53     72%     30.06 30.06      
Jun 16 06:54 Calm 10 Clear CLR 57 52     83%     30.05 30.05      
Jun 16 05:54 Calm 10 Mostly Clear FEW250 50 48     93%     30.04 30.03      
Jun 16 04:54 NW 3 10 Clear CLR 55 51     86%     30.02 30.02      
Jun 16 03:54 NW 7 10 Clear CLR 55 51     86%     30.01 30      
Notice The following observation data may not be complete
May 14 20:54 SW 13 10 Mostly Clear FEW050   51      %     29.89 29.89      
May 14 08:54 WSW 6 10 Cloudy OVC009 52 50     93%     30 30      
May 13 20:54   10 Mostly Clear FEW250 62 53     72%     29.89 29.89      
May 13 18:54 N 3 10 Clear CLR 79 63     58%   79 29.86 29.86      
May 13 05:54 S 5 10 Fog CLR 48 48     100% 46   29.93 29.93      
May 12 07:54 N 5 10 Cloudy FEW012 OVC018 51 50     96%     30.12 30.12      
May 11 23:54 NE 5 10 Cloudy FEW041 OVC049 52 50     93%     30.16 30.16      
Jun 11 18:54 WNW 9 10 Clear   64 50     60%     29.99 29.99      
Jun 11 11:54 N 9 10 Mostly Cloudy FEW020 BKN035 BKN045 59 50     72%     30.05 30.05      
Jun 11 09:54 5 10 Cloudy BKN012 BKN034 OVC060 53 50     89%     30.06 30.06      
Jun 10 11:54 S 13 10 Mostly Cloudy FEW024 SCT030 BKN036 BKN150 55 47     74%     29.89 29.89      
Jun 09 16:54 W 13 10 Mostly Cloudy SCT034 SCT042 BKN049 58 47     67%     29.91 29.91     0
Jun 08 20:54 WSW 5 10 Clear   55 46     72%     30 30      
Notice The following observation data may not be complete
Jun 08 10:17   10 Mostly Cloudy FEW013 SCT030 BKN044          %         0    
Jun 07 16:54 WNW 7 10 Cloudy SCT080 OVC095 73 50     44%   72 29.74 29.73      
Jun 07 11:54 WSW 10 10 Mostly Cloudy SCT100 BKN200 BKN250 68 49     50%     29.8 29.8      
Jun 07 10:54 SSW 8 10 Mostly Cloudy FEW120 BKN200 BKN250 65 53     65%     29.83 29.82